When you browse on this site, cookies collect data to enhance your experience and personalize the content and advertising you see.
Visit our Privacy Policy to learn more. By continuing to use the site, you agree to this use of cookies and data.
  • In Romania
  • List of Countries
  • For 7 days
  • Water Temperature
  • Satellite Maps
  • Weather Map
  • Weather Widgets
  • user-avatar
    Login

    Hourly Weather Gruszow

    Today, 19 December, Wednesday

    Time Temperature Precipitation Wind Pressure Humidity
    00:00 -2°C° 0 mm 3 mps 750 mmHg 91%
    01:00 -2°C° 0 mm 2 mps 749 mmHg 91%
    02:00 -2°C° 0 mm 3 mps 749 mmHg 90%
    03:00 -2°C° 0 mm 3 mps 749 mmHg 90%
    04:00 -2°C° 0 mm 3 mps 749 mmHg 89%
    05:00 -2°C° 0 mm 3 mps 748 mmHg 89%
    06:00 -2°C° 0 mm 3 mps 748 mmHg 89%
    07:00 -2°C° 0 mm 3 mps 748 mmHg 89%
    08:00 -3°C° 0 mm 4 mps 748 mmHg 86%
    09:00 -2°C° 0 mm 4 mps 748 mmHg 83%
    10:00 -1°C° 0 mm 4 mps 747 mmHg 81%
    11:00 -1°C° 0 mm 4 mps 747 mmHg 79%
    12:00 0°C° 0 mm 5 mps 747 mmHg 77%
    13:00 0°C° 0 mm 5 mps 747 mmHg 75%
    14:00 -1°C° 0 mm 5 mps 746 mmHg 77%
    15:00 -1°C° 0 mm 4 mps 746 mmHg 78%
    16:00 -2°C° 0 mm 4 mps 746 mmHg 79%
    17:00 -2°C° 0 mm 4 mps 746 mmHg 79%
    18:00 -2°C° 0 mm 4 mps 745 mmHg 79%
    19:00 -2°C° 0 mm 4 mps 745 mmHg 78%
    20:00 -2°C° 0.1 mm 4 mps 745 mmHg 79%
    21:00 -2°C° 0.1 mm 4 mps 745 mmHg 79%
    22:00 -2°C° 0.1 mm 4 mps 745 mmHg 79%
    23:00 -2°C° 0.2 mm 4 mps 745 mmHg 79%

    Tomorrow, 20 December, Thursday

    Time Temperature Precipitation Wind Pressure Humidity
    00:00 -2°C° 0.2 mm 4 mps 745 mmHg 79%
    01:00 -1°C° 0.2 mm 3 mps 745 mmHg 80%
    02:00 -1°C° 0.1 mm 3 mps 745 mmHg 80%
    03:00 -2°C° 0.1 mm 3 mps 744 mmHg 81%
    04:00 -2°C° 0.1 mm 3 mps 744 mmHg 82%
    05:00 -2°C° 0.1 mm 3 mps 744 mmHg 82%
    06:00 -2°C° 0.1 mm 3 mps 744 mmHg 83%
    07:00 -2°C° 0.1 mm 3 mps 744 mmHg 84%
    08:00 -2°C° 0.1 mm 3 mps 745 mmHg 83%
    09:00 -3°C° 0.1 mm 4 mps 745 mmHg 82%
    10:00 -2°C° 0.1 mm 4 mps 745 mmHg 82%
    11:00 -2°C° 0.1 mm 4 mps 745 mmHg 82%
    12:00 0°C° 0.1 mm 3 mps 745 mmHg 83%
    13:00 0°C° 0.1 mm 3 mps 745 mmHg 84%
    14:00 0°C° 0.1 mm 3 mps 745 mmHg 85%
    15:00 0°C° 0.1 mm 3 mps 745 mmHg 86%
    16:00 0°C° 0.1 mm 3 mps 745 mmHg 88%
    17:00 0°C° 0 mm 3 mps 745 mmHg 88%
    18:00 0°C° 0 mm 3 mps 745 mmHg 88%
    19:00 -1°C° 0 mm 4 mps 745 mmHg 88%
    20:00 -1°C° 0 mm 4 mps 745 mmHg 88%
    21:00 0°C° 0 mm 4 mps 745 mmHg 88%
    22:00 +1°C° 0 mm 3 mps 745 mmHg 89%
    23:00 0°C° 0 mm 4 mps 745 mmHg 89%

    Day after tomorrow, 21 December, Friday

    Time Temperature Precipitation Wind Pressure Humidity
    00:00 0°C° 0 mm 4 mps 745 mmHg 89%
    01:00 0°C° 0 mm 4 mps 745 mmHg 88%
    02:00 0°C° 0 mm 4 mps 744 mmHg 88%
    03:00 0°C° 0 mm 4 mps 744 mmHg 88%
    04:00 0°C° 0 mm 4 mps 744 mmHg 88%
    05:00 0°C° 0.3 mm 4 mps 743 mmHg 88%
    06:00 0°C° 0.3 mm 5 mps 743 mmHg 87%
    07:00 +1°C° 0.3 mm 5 mps 743 mmHg 86%
    08:00 +1°C° 0.1 mm 5 mps 742 mmHg 86%
    09:00 +1°C° 0.1 mm 5 mps 742 mmHg 85%
    10:00 +1°C° 0.1 mm 5 mps 742 mmHg 84%
    11:00 +2°C° 0.2 mm 5 mps 741 mmHg 84%
    12:00 +2°C° 0.2 mm 5 mps 740 mmHg 84%
    13:00 +2°C° 0.2 mm 6 mps 739 mmHg 83%
    14:00 +2°C° 0.4 mm 6 mps 739 mmHg 84%
    15:00 +2°C° 0.4 mm 6 mps 738 mmHg 84%
    16:00 +2°C° 0.4 mm 6 mps 737 mmHg 84%
    17:00 +2°C° 0.8 mm 6 mps 737 mmHg 85%
    18:00 +3°C° 0.8 mm 7 mps 736 mmHg 85%
    19:00 +3°C° 0.8 mm 7 mps 735 mmHg 86%
    20:00 +4°C° 0.4 mm 7 mps 735 mmHg 86%
    21:00 +5°C° 0.4 mm 7 mps 735 mmHg 85%
    22:00 +6°C° 0.4 mm 7 mps 734 mmHg 85%
    23:00 +6°C° 0.1 mm 7 mps 734 mmHg 85%

    22 December, Saturday

    Time Temperature Precipitation Wind Pressure Humidity
    00:00 +6°C° 0.1 mm 7 mps 735 mmHg 86%
    01:00 +6°C° 0.1 mm 7 mps 735 mmHg 87%
    02:00 +5°C° 0 mm 6 mps 735 mmHg 85%
    03:00 +4°C° 0 mm 6 mps 735 mmHg 84%
    04:00 +4°C° 0 mm 6 mps 736 mmHg 82%
    05:00 +5°C° 0 mm 5 mps 736 mmHg 82%
    06:00 +3°C° 0 mm 5 mps 736 mmHg 83%
    07:00 +3°C° 0 mm 5 mps 736 mmHg 83%
    08:00 +5°C° 0 mm 5 mps 736 mmHg 83%
    09:00 +5°C° 0 mm 5 mps 736 mmHg 82%
    10:00 +5°C° 0 mm 6 mps 736 mmHg 82%
    11:00 +5°C° 0.2 mm 6 mps 736 mmHg 81%
    12:00 +7°C° 0.2 mm 6 mps 736 mmHg 81%
    13:00 +7°C° 0.2 mm 6 mps 735 mmHg 80%
    14:00 +7°C° 0.3 mm 6 mps 736 mmHg 81%
    15:00 +6°C° 0.3 mm 7 mps 736 mmHg 81%
    16:00 +5°C° 0.3 mm 8 mps 736 mmHg 82%
    17:00 +5°C° 0.1 mm 8 mps 737 mmHg 79%
    18:00 +5°C° 0.1 mm 9 mps 738 mmHg 76%
    19:00 +3°C° 0.1 mm 9 mps 738 mmHg 73%
    20:00 +4°C° 0 mm 8 mps 739 mmHg 75%
    21:00 +4°C° 0 mm 8 mps 739 mmHg 77%
    22:00 +3°C° 0 mm 7 mps 739 mmHg 78%
    23:00 +3°C° 0 mm 7 mps 740 mmHg 80%

    23 December, Sunday

    Time Temperature Precipitation Wind Pressure Humidity
    00:00 +3°C° 0 mm 6 mps 740 mmHg 81%
    01:00 +3°C° 0 mm 6 mps 740 mmHg 82%
    02:00 +3°C° 0 mm 6 mps 740 mmHg 83%
    03:00 +2°C° 0 mm 6 mps 740 mmHg 84%
    04:00 +2°C° 0 mm 6 mps 740 mmHg 85%
    05:00 +2°C° 0 mm 6 mps 741 mmHg 84%
    06:00 +2°C° 0 mm 6 mps 741 mmHg 83%
    07:00 +2°C° 0 mm 6 mps 741 mmHg 83%
    08:00 +3°C° 0 mm 6 mps 742 mmHg 82%
    09:00 +3°C° 0 mm 7 mps 742 mmHg 81%
    10:00 +3°C° 0 mm 7 mps 742 mmHg 80%
    11:00 +3°C° 0 mm 7 mps 742 mmHg 79%
    12:00 +3°C° 0 mm 7 mps 742 mmHg 77%
    13:00 +3°C° 0 mm 7 mps 743 mmHg 76%
    14:00 +3°C° 0 mm 7 mps 743 mmHg 77%
    15:00 +3°C° 0 mm 6 mps 743 mmHg 78%
    16:00 +3°C° 0 mm 6 mps 743 mmHg 79%
    17:00 +2°C° 0.1 mm 6 mps 743 mmHg 79%
    18:00 +2°C° 0.1 mm 6 mps 743 mmHg 80%
    19:00 +2°C° 0.1 mm 6 mps 743 mmHg 80%
    20:00 +2°C° 0.1 mm 6 mps 743 mmHg 81%
    21:00 +2°C° 0.1 mm 6 mps 743 mmHg 82%
    22:00 +2°C° 0.1 mm 6 mps 743 mmHg 83%
    23:00 +2°C° 0.2 mm 6 mps 743 mmHg 82%

    24 December, Monday

    Time Temperature Precipitation Wind Pressure Humidity
    00:00 +2°C° 0.2 mm 7 mps 744 mmHg 82%
    01:00 +1°C° 0.2 mm 8 mps 744 mmHg 81%
    02:00 +2°C° 0.4 mm 7 mps 744 mmHg 83%
    03:00 +2°C° 0.4 mm 6 mps 745 mmHg 84%
    04:00 +1°C° 0.4 mm 5 mps 745 mmHg 86%
    05:00 +1°C° 0.5 mm 5 mps 746 mmHg 88%
    06:00 +1°C° 0.5 mm 4 mps 746 mmHg 89%
    07:00 +2°C° 0.5 mm 3 mps 747 mmHg 91%
    08:00 +1°C° 0.2 mm 4 mps 747 mmHg 90%
    09:00 +3°C° 0.2 mm 4 mps 748 mmHg 88%
    10:00 +3°C° 0.2 mm 4 mps 748 mmHg 87%
    11:00 +3°C° 0.1 mm 4 mps 748 mmHg 85%
    12:00 +2°C° 0.1 mm 5 mps 748 mmHg 83%
    13:00 +3°C° 0.1 mm 5 mps 748 mmHg 81%
    14:00 +2°C° 0 mm 5 mps 748 mmHg 82%
    15:00 +2°C° 0 mm 5 mps 748 mmHg 83%
    16:00 +3°C° 0 mm 4 mps 749 mmHg 85%
    17:00 +3°C° 0.1 mm 4 mps 749 mmHg 85%
    18:00 +2°C° 0.1 mm 5 mps 749 mmHg 85%
    19:00 +2°C° 0.1 mm 5 mps 749 mmHg 86%
    20:00 +1°C° 0 mm 5 mps 749 mmHg 84%
    21:00 +1°C° 0 mm 5 mps 749 mmHg 83%
    22:00 +1°C° 0 mm 5 mps 749 mmHg 81%
    23:00 +1°C° 0.1 mm 5 mps 749 mmHg 82%
    Show more